Year,Month,Day,Hour,Minute,Value (Times are PST for temperature in C)
2017,12,06,00,00,-0.40
2017,12,06,00,01,-0.40
2017,12,06,00,02,-0.50
2017,12,06,00,03,-0.50
2017,12,06,00,04,-0.50
2017,12,06,00,05,-0.50
2017,12,06,00,06,-0.60
2017,12,06,00,07,-0.60
2017,12,06,00,08,-0.60
2017,12,06,00,09,-0.60
2017,12,06,00,10,-0.60
2017,12,06,00,11,-0.60
2017,12,06,00,12,-0.60
2017,12,06,00,13,-0.60
2017,12,06,00,14,-0.60
2017,12,06,00,15,-0.60
2017,12,06,00,16,-0.60
2017,12,06,00,17,-0.60
2017,12,06,00,18,-0.60
2017,12,06,00,19,-0.50
2017,12,06,00,20,-0.50
2017,12,06,00,21,-0.50
2017,12,06,00,22,-0.50
2017,12,06,00,23,-0.50
2017,12,06,00,24,-0.50
2017,12,06,00,25,-0.50
2017,12,06,00,26,-0.50
2017,12,06,00,27,-0.50
2017,12,06,00,28,-0.50
2017,12,06,00,29,-0.50
2017,12,06,00,30,-0.60
2017,12,06,00,31,-0.60
2017,12,06,00,32,-0.60
2017,12,06,00,33,-0.60
2017,12,06,00,34,-0.60
2017,12,06,00,35,-0.60
2017,12,06,00,36,-0.60
2017,12,06,00,37,-0.60
2017,12,06,00,38,-0.60
2017,12,06,00,39,-0.60
2017,12,06,00,40,-0.60
2017,12,06,00,41,-0.60
2017,12,06,00,42,-0.60
2017,12,06,00,43,-0.60
2017,12,06,00,44,-0.60
2017,12,06,00,45,-0.60
2017,12,06,00,46,-0.60
2017,12,06,00,47,-0.70
2017,12,06,00,48,-0.70
2017,12,06,00,49,-0.70
2017,12,06,00,50,-0.70
2017,12,06,00,51,-0.70
2017,12,06,00,52,-0.70
2017,12,06,00,53,-0.70
2017,12,06,00,54,-0.70
2017,12,06,00,55,-0.70
2017,12,06,00,56,-0.70
2017,12,06,00,57,-0.70
2017,12,06,00,58,-0.70
2017,12,06,00,59,-0.70
2017,12,06,01,00,-0.70
2017,12,06,01,01,-0.70
2017,12,06,01,02,-0.70
2017,12,06,01,03,-0.70
2017,12,06,01,04,-0.70
2017,12,06,01,05,-0.70
2017,12,06,01,06,-0.70
2017,12,06,01,07,-0.70
2017,12,06,01,08,-0.70
2017,12,06,01,09,-0.70
2017,12,06,01,10,-0.70
2017,12,06,01,11,-0.70
2017,12,06,01,12,-0.70
2017,12,06,01,13,-0.70
2017,12,06,01,14,-0.60
2017,12,06,01,15,-0.60
2017,12,06,01,16,-0.60
2017,12,06,01,17,-0.60
2017,12,06,01,18,-0.60
2017,12,06,01,19,-0.60
2017,12,06,01,20,-0.60
2017,12,06,01,21,-0.60
2017,12,06,01,22,-0.70
2017,12,06,01,23,-0.70
2017,12,06,01,24,-0.70
2017,12,06,01,25,-0.70
2017,12,06,01,26,-0.70
2017,12,06,01,27,-0.70
2017,12,06,01,28,-0.70
2017,12,06,01,29,-0.80
2017,12,06,01,30,-0.80
2017,12,06,01,31,-0.80
2017,12,06,01,32,-0.80
2017,12,06,01,33,-0.80
2017,12,06,01,34,-0.80
2017,12,06,01,35,-0.80
2017,12,06,01,36,-0.80
2017,12,06,01,37,-0.80
2017,12,06,01,38,-0.80
2017,12,06,01,39,-0.80
2017,12,06,01,40,-0.80
2017,12,06,01,41,-0.80
2017,12,06,01,42,-0.80
2017,12,06,01,43,-0.80
2017,12,06,01,44,-0.80
2017,12,06,01,45,-0.90
2017,12,06,01,46,-0.90
2017,12,06,01,47,-0.90
2017,12,06,01,48,-0.90
2017,12,06,01,49,-0.90
2017,12,06,01,50,-0.90
2017,12,06,01,51,-0.90
2017,12,06,01,52,-0.90
2017,12,06,01,53,-0.90
2017,12,06,01,54,-0.90
2017,12,06,01,55,-0.90
2017,12,06,01,56,-0.90
2017,12,06,01,57,-0.90
2017,12,06,01,58,-0.90
2017,12,06,01,59,-0.90
2017,12,06,02,00,-0.90
2017,12,06,02,01,-0.90
2017,12,06,02,02,-0.80
2017,12,06,02,03,-0.80
2017,12,06,02,04,-0.70
2017,12,06,02,05,-0.70
2017,12,06,02,06,-0.70
2017,12,06,02,07,-0.70
2017,12,06,02,08,-0.70
2017,12,06,02,09,-0.80
2017,12,06,02,10,-0.80
2017,12,06,02,11,-0.80
2017,12,06,02,12,-0.80
2017,12,06,02,13,-0.80
2017,12,06,02,14,-0.80
2017,12,06,02,15,-0.80
2017,12,06,02,16,-0.80
2017,12,06,02,17,-0.80
2017,12,06,02,18,-0.80
2017,12,06,02,19,-0.80
2017,12,06,02,20,-0.80
2017,12,06,02,21,-0.80
2017,12,06,02,22,-0.80
2017,12,06,02,23,-0.80
2017,12,06,02,24,-0.80
2017,12,06,02,25,-0.80
2017,12,06,02,26,-0.80
2017,12,06,02,27,-0.80
2017,12,06,02,28,-0.80
2017,12,06,02,29,-0.80
2017,12,06,02,30,-0.80
2017,12,06,02,31,-0.80
2017,12,06,02,32,-0.90
2017,12,06,02,33,-0.90
2017,12,06,02,34,-0.90
2017,12,06,02,35,-1.00
2017,12,06,02,36,-1.00
2017,12,06,02,37,-1.00
2017,12,06,02,38,-1.00
2017,12,06,02,39,-1.00
2017,12,06,02,40,-1.00
2017,12,06,02,41,-1.10
2017,12,06,02,42,-1.10
2017,12,06,02,43,-1.00
2017,12,06,02,44,-1.00
2017,12,06,02,45,-1.00
2017,12,06,02,46,-1.00
2017,12,06,02,47,-1.00
2017,12,06,02,48,-0.90
2017,12,06,02,49,-0.90
2017,12,06,02,50,-0.90
2017,12,06,02,51,-0.90
2017,12,06,02,52,-0.90
2017,12,06,02,53,-0.90
2017,12,06,02,54,-0.90
2017,12,06,02,55,-0.90
2017,12,06,02,56,-0.90
2017,12,06,02,57,-0.90
2017,12,06,02,58,-0.90
2017,12,06,02,59,-0.90
2017,12,06,03,00,-0.90
2017,12,06,03,01,-0.90
2017,12,06,03,02,-0.90
2017,12,06,03,03,-0.90
2017,12,06,03,04,-0.90
2017,12,06,03,05,-0.90
2017,12,06,03,06,-0.90
2017,12,06,03,07,-0.90
2017,12,06,03,08,-0.90
2017,12,06,03,09,-0.90
2017,12,06,03,10,-0.90
2017,12,06,03,11,-0.90
2017,12,06,03,12,-0.90
2017,12,06,03,13,-0.90
2017,12,06,03,14,-0.90
2017,12,06,03,15,-1.00
2017,12,06,03,16,-1.00
2017,12,06,03,17,-1.00
2017,12,06,03,18,-1.00
2017,12,06,03,19,-1.00
2017,12,06,03,20,-0.90
2017,12,06,03,21,-0.90
2017,12,06,03,22,-0.90
2017,12,06,03,23,-0.90
2017,12,06,03,24,-1.00
2017,12,06,03,25,-1.00
2017,12,06,03,26,-1.00
2017,12,06,03,27,-1.00
2017,12,06,03,28,-1.00
2017,12,06,03,29,-1.10
2017,12,06,03,30,-1.10
2017,12,06,03,31,-1.10
2017,12,06,03,32,-1.10
2017,12,06,03,33,-1.10
2017,12,06,03,34,-1.10
2017,12,06,03,35,-1.10
2017,12,06,03,36,-1.10
2017,12,06,03,37,-1.20
2017,12,06,03,38,-1.20
2017,12,06,03,39,-1.20
2017,12,06,03,40,-1.20
2017,12,06,03,41,-1.20
2017,12,06,03,42,-1.20
2017,12,06,03,43,-1.10
2017,12,06,03,44,-1.10
2017,12,06,03,45,-1.10
2017,12,06,03,46,-1.10
2017,12,06,03,47,-1.10
2017,12,06,03,48,-1.00
2017,12,06,03,49,-0.90
2017,12,06,03,50,-0.80
2017,12,06,03,51,-0.80
2017,12,06,03,52,-0.70
2017,12,06,03,53,-0.70
2017,12,06,03,54,-0.70
2017,12,06,03,55,-0.70
2017,12,06,03,56,-0.70
2017,12,06,03,57,-0.70
2017,12,06,03,58,-0.70
2017,12,06,03,59,-0.60
2017,12,06,04,00,-0.60
2017,12,06,04,01,-0.60
2017,12,06,04,02,-0.60
2017,12,06,04,03,-0.60
2017,12,06,04,04,-0.60
2017,12,06,04,05,-0.70
2017,12,06,04,06,-0.70
2017,12,06,04,07,-0.70
2017,12,06,04,08,-0.60
2017,12,06,04,09,-0.60
2017,12,06,04,10,-0.60
2017,12,06,04,11,-0.70
2017,12,06,04,12,-0.70
2017,12,06,04,13,-0.70
2017,12,06,04,14,-0.70
2017,12,06,04,15,-0.70
2017,12,06,04,16,-0.70
2017,12,06,04,17,-0.80
2017,12,06,04,18,-0.80
2017,12,06,04,19,-0.80
2017,12,06,04,20,-0.90
2017,12,06,04,21,-0.90
2017,12,06,04,22,-0.90
2017,12,06,04,23,-0.90
2017,12,06,04,24,-1.00
2017,12,06,04,25,-1.00
2017,12,06,04,26,-1.00
2017,12,06,04,27,-1.10
2017,12,06,04,28,-1.20
2017,12,06,04,29,-1.20
2017,12,06,04,30,-1.20
2017,12,06,04,31,-1.30
2017,12,06,04,32,-1.30
2017,12,06,04,33,-1.30
2017,12,06,04,34,-1.30
2017,12,06,04,35,-1.30
2017,12,06,04,36,-1.30
2017,12,06,04,37,-1.30
2017,12,06,04,38,-1.30
2017,12,06,04,39,-1.30
2017,12,06,04,40,-1.30
2017,12,06,04,41,-1.30
2017,12,06,04,42,-1.30
2017,12,06,04,43,-1.30
2017,12,06,04,44,-1.30
2017,12,06,04,45,-1.30
2017,12,06,04,46,-1.30
2017,12,06,04,47,-1.30
2017,12,06,04,48,-1.30
2017,12,06,04,49,-1.30
2017,12,06,04,50,-1.30
2017,12,06,04,51,-1.30
2017,12,06,04,52,-1.20
2017,12,06,04,53,-1.20
2017,12,06,04,54,-1.20
2017,12,06,04,55,-1.20
2017,12,06,04,56,-1.20
2017,12,06,04,57,-1.20
2017,12,06,04,58,-1.20
2017,12,06,04,59,-1.20
2017,12,06,05,00,-1.20
2017,12,06,05,01,-1.20
2017,12,06,05,02,-1.20
2017,12,06,05,03,-1.20
2017,12,06,05,04,-1.20
2017,12,06,05,05,-1.20
2017,12,06,05,06,-1.20
2017,12,06,05,07,-1.20
2017,12,06,05,08,-1.20
2017,12,06,05,09,-1.20
2017,12,06,05,10,-1.20
2017,12,06,05,11,-1.20
2017,12,06,05,12,-1.20
2017,12,06,05,13,-1.20
2017,12,06,05,14,-1.20
2017,12,06,05,15,-1.20
2017,12,06,05,16,-1.20
2017,12,06,05,17,-1.20
2017,12,06,05,18,-1.20
2017,12,06,05,19,-1.30
2017,12,06,05,20,-1.30
2017,12,06,05,21,-1.30
2017,12,06,05,22,-1.30
2017,12,06,05,23,-1.30
2017,12,06,05,24,-1.30
2017,12,06,05,25,-1.30
2017,12,06,05,26,-1.30
2017,12,06,05,27,-1.30
2017,12,06,05,28,-1.30
2017,12,06,05,29,-1.30
2017,12,06,05,30,-1.30
2017,12,06,05,31,-1.30
2017,12,06,05,32,-1.30
2017,12,06,05,33,-1.30
2017,12,06,05,34,-1.30
2017,12,06,05,35,-1.30
2017,12,06,05,36,-1.30
2017,12,06,05,37,-1.30
2017,12,06,05,38,-1.30
2017,12,06,05,39,-1.30
2017,12,06,05,40,-1.30
2017,12,06,05,41,-1.30
2017,12,06,05,42,-1.30
2017,12,06,05,43,-1.20
2017,12,06,05,44,-1.20
2017,12,06,05,45,-1.20
2017,12,06,05,46,-1.10
2017,12,06,05,47,-1.10
2017,12,06,05,48,-1.10
2017,12,06,05,49,-1.20
2017,12,06,05,50,-1.20
2017,12,06,05,51,-1.20
2017,12,06,05,52,-1.30
2017,12,06,05,53,-1.30
2017,12,06,05,54,-1.30
2017,12,06,05,55,-1.30
2017,12,06,05,56,-1.30
2017,12,06,05,57,-1.30
2017,12,06,05,58,-1.20
2017,12,06,05,59,-1.30
2017,12,06,06,00,-1.30
2017,12,06,06,01,-1.30
2017,12,06,06,02,-1.30
2017,12,06,06,03,-1.30
2017,12,06,06,04,-1.30
2017,12,06,06,05,-1.30
2017,12,06,06,06,-1.30
2017,12,06,06,07,-1.30
2017,12,06,06,08,-1.30
2017,12,06,06,09,-1.30
2017,12,06,09,34,0.10
2017,12,06,09,35,0.20
2017,12,06,09,36,0.30
2017,12,06,09,37,0.40
2017,12,06,09,38,0.50
2017,12,06,09,39,0.60
2017,12,06,09,40,0.70
2017,12,06,09,41,0.70
2017,12,06,09,42,0.80
2017,12,06,09,43,0.90
2017,12,06,09,44,0.90
2017,12,06,09,45,1.00
2017,12,06,09,46,1.00
2017,12,06,09,47,1.10
2017,12,06,09,48,1.10
2017,12,06,09,49,1.20
2017,12,06,09,50,1.20
2017,12,06,09,51,1.20
2017,12,06,09,52,1.30
2017,12,06,09,53,1.30
2017,12,06,09,54,1.40
2017,12,06,09,55,1.40
2017,12,06,09,56,1.50
2017,12,06,09,57,1.50
2017,12,06,09,58,1.60
2017,12,06,09,59,1.60
2017,12,06,10,00,1.70
2017,12,06,10,01,1.70
2017,12,06,10,02,1.80
2017,12,06,10,03,1.80
2017,12,06,10,04,1.80
2017,12,06,10,05,1.90
2017,12,06,10,06,1.90
2017,12,06,10,07,2.00
2017,12,06,10,08,2.00
2017,12,06,10,09,2.10
2017,12,06,10,10,2.10
2017,12,06,10,11,2.10
2017,12,06,10,12,2.20
2017,12,06,10,13,2.20
2017,12,06,10,14,2.30
2017,12,06,10,15,2.30
2017,12,06,10,16,2.30
2017,12,06,10,17,2.40
2017,12,06,10,18,2.40
2017,12,06,10,19,2.50
2017,12,06,10,20,2.50
2017,12,06,10,21,2.60
2017,12,06,10,22,2.60
2017,12,06,10,23,2.60
2017,12,06,10,24,2.70
2017,12,06,10,25,2.70
2017,12,06,10,26,2.70
2017,12,06,10,27,2.80
2017,12,06,10,28,2.80
2017,12,06,10,29,2.80
2017,12,06,10,30,2.90
2017,12,06,10,31,2.90
2017,12,06,10,32,2.90
2017,12,06,10,33,2.90
2017,12,06,10,34,3.00
2017,12,06,10,35,3.00
2017,12,06,10,36,3.10
2017,12,06,10,37,3.10
2017,12,06,10,38,3.10
2017,12,06,10,39,3.20
2017,12,06,10,40,3.20
2017,12,06,10,41,3.20
2017,12,06,10,42,3.30
2017,12,06,10,43,3.30
2017,12,06,10,44,3.30
2017,12,06,10,45,3.40
2017,12,06,10,46,3.40
2017,12,06,10,47,3.40
2017,12,06,10,48,3.40
2017,12,06,10,49,3.50
2017,12,06,10,50,3.50
2017,12,06,10,51,3.60
2017,12,06,10,52,3.60
2017,12,06,10,53,3.70
2017,12,06,10,54,3.70
2017,12,06,10,55,3.70
2017,12,06,10,56,3.70
2017,12,06,10,57,3.70
2017,12,06,10,58,3.80
2017,12,06,10,59,3.80
2017,12,06,11,00,3.80
2017,12,06,11,01,3.80
2017,12,06,11,02,3.80
2017,12,06,11,03,3.80
2017,12,06,11,04,3.80
2017,12,06,11,05,3.80
2017,12,06,11,06,3.80
2017,12,06,11,07,3.80
2017,12,06,11,08,3.80
2017,12,06,11,09,3.80
2017,12,06,11,10,3.80
2017,12,06,11,11,3.80
2017,12,06,11,12,3.80
2017,12,06,11,13,3.80
2017,12,06,11,14,3.80
2017,12,06,11,15,3.80
2017,12,06,17,28,2.90
2017,12,06,17,29,2.90
2017,12,06,17,30,2.90
2017,12,06,17,31,2.90
2017,12,06,17,32,2.80
2017,12,06,17,33,2.80
2017,12,06,17,34,2.80
2017,12,06,17,35,2.80
2017,12,06,17,36,2.80
2017,12,06,17,37,2.80
2017,12,06,17,38,2.80
2017,12,06,17,39,2.80
2017,12,06,17,40,2.80
2017,12,06,17,41,2.70
2017,12,06,17,42,2.70
2017,12,06,17,43,2.70
2017,12,06,17,44,2.70
2017,12,06,17,45,2.70
2017,12,06,17,46,2.70
2017,12,06,17,47,2.70
2017,12,06,17,48,2.70
2017,12,06,17,49,2.70
2017,12,06,17,50,2.70
2017,12,06,17,51,2.70
2017,12,06,17,52,2.60
2017,12,06,17,53,2.60
2017,12,06,17,54,2.60
2017,12,06,17,55,2.60
2017,12,06,17,56,2.60
2017,12,06,17,57,2.60
2017,12,06,17,58,2.50
2017,12,06,17,59,2.50
2017,12,06,18,00,2.50
2017,12,06,18,01,2.40
2017,12,06,18,02,2.40
2017,12,06,18,03,2.40
2017,12,06,18,04,2.40
2017,12,06,18,05,2.40
2017,12,06,18,06,2.40
2017,12,06,18,07,2.40
2017,12,06,18,08,2.40
2017,12,06,18,09,2.30
2017,12,06,18,10,2.30
2017,12,06,18,11,2.30
2017,12,06,18,12,2.30
2017,12,06,18,13,2.30
2017,12,06,18,14,2.30
2017,12,06,18,15,2.30
2017,12,06,18,16,2.30
2017,12,06,18,17,2.20
2017,12,06,18,18,2.20
2017,12,06,18,19,2.20
2017,12,06,18,20,2.20
2017,12,06,18,21,2.20
2017,12,06,18,22,2.20
2017,12,06,18,23,2.10
2017,12,06,18,24,2.10
2017,12,06,18,25,2.10
2017,12,06,18,26,2.10
2017,12,06,18,27,2.10
2017,12,06,18,28,2.00
2017,12,06,18,29,2.00
2017,12,06,18,30,2.00
2017,12,06,18,31,1.90
2017,12,06,18,32,1.90
2017,12,06,18,33,1.90
2017,12,06,18,34,1.90
2017,12,06,18,35,1.80
2017,12,06,18,36,1.80
2017,12,06,18,37,1.80
2017,12,06,18,38,1.80
2017,12,06,18,39,1.80
2017,12,06,18,40,1.80
2017,12,06,18,41,1.70
2017,12,06,18,42,1.70
2017,12,06,18,43,1.70
2017,12,06,18,44,1.70
2017,12,06,18,45,1.70
2017,12,06,18,46,1.70
2017,12,06,18,47,1.60
2017,12,06,18,48,1.60
2017,12,06,18,49,1.60
2017,12,06,18,50,1.60
2017,12,06,18,51,1.50
2017,12,06,18,52,1.50
2017,12,06,18,53,1.40
2017,12,06,18,54,1.40
2017,12,06,18,55,1.40
2017,12,06,18,56,1.30
2017,12,06,18,57,1.30
2017,12,06,18,58,1.30
2017,12,06,18,59,1.30
2017,12,06,19,00,1.20
2017,12,06,19,01,1.20
2017,12,06,19,02,1.20
2017,12,06,19,03,1.20
2017,12,06,19,04,1.10
2017,12,06,19,05,1.10
2017,12,06,19,06,1.10
2017,12,06,19,07,1.10
2017,12,06,19,08,1.00
2017,12,06,19,09,1.00
2017,12,06,19,10,1.00
2017,12,06,19,11,0.90
2017,12,06,19,12,0.90
2017,12,06,19,13,0.90
2017,12,06,19,14,0.90
2017,12,06,19,15,0.90
2017,12,06,19,16,0.80
2017,12,06,19,17,0.80
2017,12,06,19,18,0.80
2017,12,06,19,19,0.80
2017,12,06,19,20,0.80
2017,12,06,19,21,0.70
2017,12,06,19,22,0.70
2017,12,06,19,23,0.70
2017,12,06,19,24,0.70
2017,12,06,19,25,0.70
2017,12,06,19,26,0.70
2017,12,06,19,27,0.60
2017,12,06,19,28,0.60
2017,12,06,19,29,0.60
2017,12,06,19,30,0.60
2017,12,06,19,31,0.60
2017,12,06,19,32,0.60
2017,12,06,19,33,0.60
2017,12,06,19,34,0.60
2017,12,06,19,35,0.60
2017,12,06,19,36,0.60
2017,12,06,19,37,0.60
2017,12,06,19,38,0.60
2017,12,06,19,39,0.60
2017,12,06,19,40,0.60
2017,12,06,19,41,0.60
2017,12,06,19,42,0.60
2017,12,06,19,43,0.60
2017,12,06,19,44,0.60
2017,12,06,19,45,0.60
2017,12,06,19,46,0.70
2017,12,06,19,47,0.70
2017,12,06,19,48,0.70
2017,12,06,19,49,0.70
2017,12,06,19,50,0.70
2017,12,06,19,51,0.70
2017,12,06,19,52,0.70
2017,12,06,19,53,0.70
2017,12,06,19,54,0.70
2017,12,06,19,55,0.80
2017,12,06,19,56,0.80
2017,12,06,19,57,0.80
2017,12,06,19,58,0.80
2017,12,06,19,59,0.80
2017,12,06,20,00,0.80
2017,12,06,20,01,0.80
2017,12,06,20,02,0.80
2017,12,06,20,03,0.80
2017,12,06,20,04,0.80
2017,12,06,20,05,0.80
2017,12,06,20,06,0.90
2017,12,06,20,07,0.90
2017,12,06,20,08,0.90
2017,12,06,20,09,0.90
2017,12,06,20,10,0.90
2017,12,06,20,11,0.90
2017,12,06,20,12,0.90
2017,12,06,20,13,0.90
2017,12,06,20,14,0.90
2017,12,06,20,15,1.00
2017,12,06,20,16,1.00
2017,12,06,20,17,1.00
2017,12,06,20,18,1.00
2017,12,06,20,19,1.00
2017,12,06,20,20,1.00
2017,12,06,20,21,1.00
2017,12,06,20,22,1.00
2017,12,06,20,23,1.00
2017,12,06,20,24,1.00
2017,12,06,20,25,1.00
2017,12,06,20,26,1.00
2017,12,06,20,27,1.00
2017,12,06,20,28,1.10
2017,12,06,20,29,1.10
2017,12,06,20,30,1.10
2017,12,06,20,31,1.10
2017,12,06,20,32,1.10
2017,12,06,20,33,1.10
2017,12,06,20,34,1.10
2017,12,06,20,35,1.10
2017,12,06,20,36,1.10
2017,12,06,20,37,1.10
2017,12,06,20,38,1.10
2017,12,06,20,39,1.10
2017,12,06,20,40,1.10
2017,12,06,20,41,1.10
2017,12,06,20,42,1.20
2017,12,06,20,43,1.20
2017,12,06,20,44,1.20
2017,12,06,20,45,1.20
2017,12,06,20,46,1.20
2017,12,06,20,47,1.20
2017,12,06,20,48,1.20
2017,12,06,20,49,1.20
2017,12,06,20,50,1.20
2017,12,06,20,51,1.20
2017,12,06,20,52,1.20
2017,12,06,20,53,1.20
2017,12,06,20,54,1.20
2017,12,06,20,55,1.20
2017,12,06,20,56,1.20
2017,12,06,20,57,1.20
2017,12,06,20,58,1.20
2017,12,06,20,59,1.20
2017,12,06,21,00,1.20
2017,12,06,21,01,1.30
2017,12,06,21,02,1.30
2017,12,06,21,03,1.30
2017,12,06,21,04,1.30
2017,12,06,21,05,1.30
2017,12,06,21,06,1.30
2017,12,06,21,07,1.30
2017,12,06,21,08,1.30
2017,12,06,21,09,1.30
2017,12,06,21,10,1.30
2017,12,06,21,11,1.30
2017,12,06,21,12,1.30
2017,12,06,21,13,1.40
2017,12,06,21,14,1.40
2017,12,06,21,15,1.40
2017,12,06,21,16,1.40
2017,12,06,21,17,1.40
2017,12,06,21,18,1.40
2017,12,06,21,19,1.40
2017,12,06,21,20,1.40
2017,12,06,21,21,1.40
2017,12,06,21,22,1.40
2017,12,06,21,23,1.40
2017,12,06,21,24,1.40
2017,12,06,21,25,1.40
2017,12,06,21,26,1.40
2017,12,06,21,27,1.40
2017,12,06,21,28,1.40
2017,12,06,21,29,1.40
2017,12,06,21,30,1.40
2017,12,06,21,31,1.40
2017,12,06,21,32,1.40
2017,12,06,21,33,1.40
2017,12,06,21,34,1.40
2017,12,06,21,35,1.40
2017,12,06,21,36,1.40
2017,12,06,21,37,1.40
2017,12,06,21,38,1.40
2017,12,06,21,39,1.40
2017,12,06,21,40,1.40
2017,12,06,21,41,1.40
2017,12,06,21,42,1.40
2017,12,06,21,43,1.40
2017,12,06,21,44,1.40
2017,12,06,21,45,1.40
2017,12,06,21,46,1.40
2017,12,06,21,47,1.40
2017,12,06,21,48,1.40
2017,12,06,21,49,1.40
2017,12,06,21,50,1.30
2017,12,06,21,51,1.30
2017,12,06,21,52,1.30
2017,12,06,21,53,1.30
2017,12,06,21,54,1.30
2017,12,06,21,55,1.30
2017,12,06,21,56,1.30
2017,12,06,21,57,1.20
2017,12,06,21,58,1.20
2017,12,06,21,59,1.20
2017,12,06,22,00,1.10
2017,12,06,22,01,1.10
2017,12,06,22,02,1.10
2017,12,06,22,03,1.00
2017,12,06,22,04,1.00
2017,12,06,22,05,0.90
2017,12,06,22,06,0.90
2017,12,06,22,07,0.90
2017,12,06,22,08,0.80
2017,12,06,22,09,0.80
2017,12,06,22,10,0.80
2017,12,06,22,11,0.70
2017,12,06,22,12,0.70
2017,12,06,22,13,0.70
2017,12,06,22,14,0.60
2017,12,06,22,15,0.60
2017,12,06,22,16,0.50
2017,12,06,22,17,0.50
2017,12,06,22,18,0.40
2017,12,06,22,19,0.40
2017,12,06,22,20,0.40
2017,12,06,22,21,0.30
2017,12,06,22,22,0.30
2017,12,06,22,23,0.30
2017,12,06,22,24,0.20
2017,12,06,22,25,0.20
2017,12,06,22,26,0.20
2017,12,06,22,27,0.20
2017,12,06,22,28,0.20
2017,12,06,22,29,0.10
2017,12,06,22,30,0.10
2017,12,06,22,31,0.10
2017,12,06,22,32,0.10
2017,12,06,22,33,0.00
2017,12,06,22,34,0.00
2017,12,06,22,35,0.00
2017,12,06,22,36,0.00
2017,12,06,22,37,-0.10
2017,12,06,22,38,-0.10
2017,12,06,22,39,-0.10
2017,12,06,22,40,-0.10
2017,12,06,22,41,-0.10
2017,12,06,22,42,-0.10
2017,12,06,22,43,-0.20
2017,12,06,22,44,-0.20
2017,12,06,22,45,-0.20
2017,12,06,22,46,-0.20
2017,12,06,22,47,-0.20
2017,12,06,22,48,-0.20
2017,12,06,22,49,-0.20
2017,12,06,22,50,-0.30
2017,12,06,22,51,-0.30
2017,12,06,22,52,-0.30
2017,12,06,22,53,-0.30
2017,12,06,22,54,-0.30
2017,12,06,22,55,-0.30
2017,12,06,22,56,-0.30
2017,12,06,22,57,-0.30
2017,12,06,22,58,-0.30
2017,12,06,22,59,-0.40
2017,12,06,23,00,-0.40
2017,12,06,23,01,-0.40
2017,12,06,23,02,-0.40
2017,12,06,23,03,-0.40
2017,12,06,23,04,-0.40
2017,12,06,23,05,-0.40
2017,12,06,23,06,-0.40
2017,12,06,23,07,-0.40
2017,12,06,23,08,-0.40
2017,12,06,23,09,-0.40
2017,12,06,23,10,-0.40
2017,12,06,23,11,-0.40
2017,12,06,23,12,-0.40
2017,12,06,23,13,-0.40
2017,12,06,23,14,-0.40
2017,12,06,23,15,-0.40
2017,12,06,23,16,-0.40
2017,12,06,23,17,-0.40
2017,12,06,23,18,-0.40
2017,12,06,23,19,-0.40
2017,12,06,23,20,-0.40
2017,12,06,23,21,-0.40
2017,12,06,23,22,-0.40
2017,12,06,23,23,-0.40
2017,12,06,23,24,-0.40
2017,12,06,23,25,-0.40
2017,12,06,23,26,-0.40
2017,12,06,23,27,-0.40
2017,12,06,23,28,-0.40
2017,12,06,23,29,-0.40
2017,12,06,23,30,-0.40
2017,12,06,23,31,-0.40
2017,12,06,23,32,-0.40
2017,12,06,23,33,-0.40
2017,12,06,23,34,-0.40
2017,12,06,23,35,-0.30
2017,12,06,23,36,-0.30
2017,12,06,23,37,-0.30
2017,12,06,23,38,-0.30
2017,12,06,23,39,-0.40
2017,12,06,23,40,-0.40
2017,12,06,23,41,-0.40
2017,12,06,23,42,-0.40
2017,12,06,23,43,-0.40
2017,12,06,23,44,-0.40
2017,12,06,23,45,-0.40
2017,12,06,23,46,-0.40
2017,12,06,23,47,-0.40
2017,12,06,23,48,-0.40
2017,12,06,23,49,-0.40
2017,12,06,23,50,-0.40
2017,12,06,23,51,-0.40
2017,12,06,23,52,-0.40
2017,12,06,23,53,-0.40
2017,12,06,23,54,-0.40
2017,12,06,23,55,-0.50
2017,12,06,23,56,-0.50
2017,12,06,23,57,-0.50
2017,12,06,23,58,-0.50
2017,12,06,23,59,-0.50
